TLEEKTOWN Weather Reports


time (UTC)temp
C
wind
direction
speed
KPH
gust
KPH
rain 1hr
cm
rain 24hr
cm
rain mn
cm
humidity
%
barometer
mb
20260507160511 13 0 0.0 6.4 0.00 0.15 0.15 57 1012.0
20260507160049 13 0 0.0 6.4 0.00 0.15 0.15 58 1012.1
20260507155514 13 325 0.0 1.6 0.00 0.25 0.15 57 1012.1
20260507155011 13 0 0.0 8.0 0.00 0.25 0.15 57 1012.1
20260507154528 13 0 0.0 8.0 0.00 0.25 0.15 55 1012.2
20260507154009 13 0 0.0 3.2 0.00 0.25 0.15 60 1012.2
20260507153510 13 0 0.0 3.2 0.00 0.25 0.15 60 1012.3
20260507153032 13 0 0.0 3.2 0.00 0.25 0.15 61 1012.3
20260507152511 12 0 0.0 1.6 0.00 0.25 0.15 62 1012.3
20260507152015 12 0 0.0 1.6 0.00 0.25 0.15 63 1012.2
20260507151529 12 228 0.0 1.6 0.00 0.25 0.15 65 1012.3
20260507151011 12 0 0.0 1.6 0.00 0.25 0.15 64 1012.3
20260507150511 12 0 0.0 1.6 0.00 0.25 0.15 67 1012.4
20260507150029 12 0 0.0 1.6 0.00 0.25 0.15 68 1012.4
20260507145510 12 0 0.0 3.2 0.00 0.46 0.15 67 1012.5
20260507145011 12 137 0.0 3.2 0.00 0.46 0.15 69 1012.7
20260507144541 12 0 0.0 1.6 0.00 0.46 0.15 70 1012.6
20260507144011 12 0 0.0 0.0 0.00 0.46 0.15 71 1012.7
20260507143507 11 0 0.0 0.0 0.00 0.46 0.15 73 1012.7
20260507143033 11 0 0.0 0.0 0.00 0.46 0.15 73 1012.9
20260507142509 11 0 0.0 0.0 0.00 0.46 0.15 72 1012.8
20260507142010 11 0 0.0 0.0 0.00 0.46 0.15 73 1012.8
20260507141531 11 0 0.0 0.0 0.00 0.46 0.15 76 1013.0
20260507141012 11 0 0.0 0.0 0.00 0.46 0.15 75 1012.9
20260507140512 11 0 0.0 0.0 0.00 0.46 0.15 76 1013.1
20260507140032 11 0 0.0 0.0 0.00 0.46 0.15 76 1013.0
20260507135510 11 0 0.0 0.0 0.00 0.79 0.15 79 1013.1
20260507135009 11 0 0.0 1.6 0.00 0.79 0.15 74 1013.1
20260507134528 11 0 0.0 1.6 0.00 0.79 0.15 76 1013.2
20260507134010 11 0 0.0 1.6 0.00 0.79 0.15 75 1013.2
20260507133511 11 0 0.0 0.0 0.00 0.79 0.15 75 1013.0
20260507133030 11 0 0.0 0.0 0.00 0.79 0.15 76 1013.1
20260507132507 11 0 0.0 0.0 0.00 0.79 0.15 76 1013.3
20260507132011 11 0 0.0 0.0 0.00 0.79 0.15 75 1013.2
20260507131532 11 0 0.0 0.0 0.00 0.79 0.15 78 1012.9
20260507131009 11 0 0.0 1.6 0.00 0.79 0.15 80 1012.9
20260507130511 11 0 0.0 1.6 0.00 0.79 0.15 82 1012.9
20260507130036 11 0 0.0 1.6 0.00 0.79 0.15 82 1012.9
20260507125509 11 0 0.0 1.6 0.00 0.86 0.15 86 1013.0
20260507125008 11 0 0.0 0.0 0.00 0.86 0.15 87 1013.0
20260507124530 11 0 0.0 0.0 0.00 0.86 0.15 86 1013.0
20260507124010 11 0 0.0 0.0 0.00 0.86 0.15 86 1013.0
20260507123511 11 0 0.0 0.0 0.00 0.86 0.15 86 1012.9
20260507123039 11 0 0.0 0.0 0.00 0.86 0.15 87 1012.9
20260507122511 11 0 0.0 0.0 0.00 0.86 0.15 87 1012.8
20260507122012 10 0 0.0 0.0 0.00 0.86 0.15 87 1012.8
20260507121530 10 0 0.0 0.0 0.00 0.86 0.15 86 1012.9
20260507121011 10 0 0.0 0.0 0.00 0.86 0.15 86 1012.8
20260507120508 10 0 0.0 0.0 0.00 0.86 0.15 87 1012.9
20260507120030 10 0 0.0 0.0 0.00 0.86 0.15 88 1012.7
20260507115509 10 0 0.0 1.6 0.00 0.86 0.15 88 1012.5
20260507115012 10 0 0.0 1.6 0.00 0.86 0.15 88 1012.7
20260507114530 10 0 0.0 0.0 0.00 0.86 0.15 89 1012.7
20260507114011 10 0 0.0 0.0 0.00 0.86 0.15 89 1012.7
20260507113509 10 0 0.0 0.0 0.00 0.86 0.15 89 1012.5
20260507113029 10 0 0.0 0.0 0.00 0.86 0.15 90 1012.6
20260507112511 10 0 0.0 0.0 0.00 0.86 0.15 90 1012.4
20260507112012 10 0 0.0 0.0 0.00 0.86 0.15 90 1012.4
20260507111535 10 0 0.0 0.0 0.00 0.86 0.15 90 1012.4
20260507111012 10 0 0.0 0.0 0.00 0.86 0.15 90 1012.5
20260507110507 11 0 0.0 0.0 0.00 0.86 0.15 91 1012.5
20260507110032 11 0 0.0 0.0 0.00 0.86 0.15 92 1012.4
20260507105508 11 0 0.0 0.0 0.00 0.86 0.15 92 1012.5
20260507105010 11 0 0.0 0.0 0.00 0.86 0.15 92 1012.4
20260507104530 11 0 0.0 0.0 0.00 0.86 0.15 93 1012.2
20260507104012 11 0 0.0 0.0 0.00 0.86 0.15 93 1012.2
20260507103511 11 0 0.0 0.0 0.00 0.86 0.15 93 1012.2
20260507103028 11 0 0.0 0.0 0.00 0.86 0.15 93 1012.2
20260507102509 11 0 0.0 0.0 0.00 0.86 0.15 93 1012.1
20260507102011 11 0 0.0 0.0 0.00 0.86 0.15 93 1012.1
20260507101529 11 0 0.0 0.0 0.00 0.86 0.15 93 1012.0
20260507101011 11 0 0.0 0.0 0.00 0.86 0.15 93 1012.1
20260507100516 11 0 0.0 0.0 0.00 0.86 0.15 93 1012.0
20260507100032 11 0 0.0 0.0 0.00 0.86 0.15 93 1011.9
20260507095509 11 0 0.0 0.0 0.00 0.86 0.15 93 1011.9
20260507095011 11 0 0.0 0.0 0.00 0.86 0.15 93 1011.9
20260507094528 11 0 0.0 0.0 0.00 0.86 0.15 93 1011.9
20260507094008 11 0 0.0 0.0 0.00 0.86 0.15 93 1012.0
20260507093508 11 0 0.0 0.0 0.00 0.86 0.15 93 1011.9
20260507093040 11 0 0.0 0.0 0.00 0.86 0.15 93 1011.7
20260507092512 11 0 0.0 0.0 0.00 0.86 0.15 93 1011.5
20260507092011 11 0 0.0 0.0 0.00 0.86 0.15 93 1011.5
20260507091530 11 0 0.0 0.0 0.00 0.86 0.15 93 1011.6
20260507091012 11 0 0.0 0.0 0.00 0.86 0.15 93 1011.6
20260507090511 11 0 0.0 0.0 0.00 0.86 0.15 93 1011.8
20260507090029 11 0 0.0 0.0 0.00 0.86 0.15 93 1011.9
20260507085511 11 0 0.0 0.0 0.00 0.86 0.15 93 1011.8
20260507085010 11 0 0.0 0.0 0.00 0.86 0.15 93 1011.6
20260507084530 11 0 0.0 0.0 0.00 0.86 0.15 93 1011.6
20260507084012 11 0 0.0 0.0 0.00 0.86 0.15 93 1011.6
20260507083510 11 0 0.0 0.0 0.00 0.86 0.15 93 1011.5
20260507083030 11 0 0.0 0.0 0.00 0.86 0.15 93 1011.5
20260507082507 11 0 0.0 0.0 0.00 0.86 0.15 93 1011.5
20260507082012 11 0 0.0 0.0 0.00 0.86 0.15 93 1011.4
20260507081536 11 0 0.0 0.0 0.00 0.86 0.15 92 1011.2
20260507081009 11 0 0.0 0.0 0.00 0.86 0.15 92 1011.0
20260507080513 11 0 0.0 0.0 0.00 0.86 0.15 92 1011.1
20260507080028 11 0 0.0 1.6 0.00 0.86 0.15 92 1011.0
20260507075507 11 0 0.0 1.6 0.00 0.86 0.15 92 1010.9
20260507075011 12 0 0.0 1.6 0.00 0.86 0.15 92 1010.9
20260507074532 12 0 0.0 0.0 0.00 0.86 0.15 92 1010.9
20260507074013 12 0 0.0 1.6 0.00 0.86 0.15 92 1010.9
20260507073511 12 0 0.0 1.6 0.00 0.86 0.15 92 1010.7
20260507073028 12 0 0.0 1.6 0.00 0.86 0.15 92 1010.8
20260507072510 12 0 0.0 1.6 0.00 0.86 0.15 92 1010.9
20260507072011 12 0 0.0 0.0 0.00 0.86 0.15 92 1010.9
20260507071529 12 0 0.0 0.0 0.00 0.86 0.15 92 1010.7
20260507071008 12 0 0.0 1.6 0.00 0.86 0.15 93 1010.7
20260507070515 12 0 0.0 1.6 0.00 0.86 0.15 92 1010.7
20260507070030 12 0 0.0 1.6 0.00 0.86 0.15 93 1010.7
20260507065514 12 0 0.0 0.0 0.03 0.86 0.15 93 1010.8
20260507065008 12 0 0.0 0.0 0.03 0.86 0.15 93 1010.8
20260507064530 12 0 0.0 0.0 0.03 0.86 0.15 93 1011.0
20260507064011 12 0 0.0 0.0 0.03 0.86 0.15 93 1010.8
20260507063514 12 0 0.0 1.6 0.03 0.86 0.15 93 1010.8
20260507063030 12 0 0.0 1.6 0.03 0.86 0.15 92 1010.9
20260507062512 12 0 0.0 0.0 0.03 0.86 0.15 92 1010.9
20260507062012 12 0 0.0 0.0 0.05 0.86 0.15 92 1010.7
20260507061530 13 0 0.0 0.0 0.05 0.86 0.15 92 1010.7
20260507061011 13 0 0.0 1.6 0.05 0.86 0.15 92 1010.7
20260507060507 13 0 0.0 1.6 0.05 0.86 0.15 92 1010.7
20260507060028 13 0 0.0 0.0 0.08 0.86 0.15 91 1010.7
20260507055508 13 0 0.0 0.0 0.10 0.84 0.13 91 1010.9
20260507055008 13 0 0.0 0.0 0.13 0.84 0.13 91 1010.9
20260507054530 13 0 0.0 0.0 0.13 0.84 0.13 91 1010.9
20260507054012 13 0 0.0 3.2 0.13 0.84 0.13 90 1011.1
20260507053509 13 0 0.0 3.2 0.13 0.84 0.13 90 1011.1
20260507053028 13 0 0.0 1.6 0.13 0.84 0.13 90 1011.0
20260507052511 13 0 0.0 0.0 0.10 0.81 0.10 89 1011.0
20260507052012 13 0 0.0 0.0 0.10 0.81 0.10 88 1010.7
20260507051528 13 0 0.0 3.2 0.10 0.81 0.10 87 1010.6
20260507051009 14 0 0.0 3.2 0.10 0.81 0.10 86 1010.9
20260507050512 14 0 0.0 3.2 0.10 0.81 0.10 86 1011.0
20260507050036 15 0 0.0 3.2 0.08 0.79 0.08 84 1011.4
20260507045512 15 0 0.0 3.2 0.03 0.74 0.03 83 1011.4
20260507045010 15 0 0.0 1.6 0.00 0.71 0.00 82 1011.2
20260507044528 15 0 0.0 3.2 0.00 0.71 0.00 80 1011.0
20260507044009 15 0 0.0 3.2 0.00 0.71 0.00 79 1010.9
20260507043510 15 245 0.0 4.8 0.00 0.71 0.00 79 1010.8
20260507043028 15 0 0.0 6.4 0.00 0.71 0.00 78 1010.9
20260507042510 15 229 0.0 6.4 0.00 0.71 0.00 77 1011.2
20260507042008 15 0 0.0 1.6 0.00 0.71 0.00 77 1011.2
20260507041542 15 0 0.0 1.6 0.00 0.71 0.00 77 1011.1
20260507041012 16 0 0.0 3.2 0.00 0.71 0.00 78 1010.9
20260507040510 16 0 0.0 3.2 0.00 0.71 0.00 78 1010.9
20260507040027 16 0 0.0 1.6 0.00 0.71 0.00 78 1010.8
20260507035511 16 0 0.0 3.2 0.00 0.71 0.71 78 1010.5
20260507035015 16 0 0.0 3.2 0.00 0.71 0.71 77 1010.4
20260507034529 16 278 0.0 3.2 0.00 0.71 0.71 77 1010.2
20260507034007 16 0 0.0 6.4 0.00 0.71 0.71 78 1010.5
20260507033509 16 0 0.0 6.4 0.00 0.71 0.71 77 1010.4
20260507033034 16 42 0.0 3.2 0.00 0.71 0.71 78 1010.4
20260507032506 16 0 0.0 4.8 0.00 0.71 0.71 78 1010.6
20260507032013 17 0 0.0 4.8 0.00 0.71 0.71 78 1010.4
20260507031530 17 286 0.0 3.2 0.00 0.71 0.71 78 1010.4
20260507031009 17 0 0.0 1.6 0.00 0.71 0.71 78 1010.3
20260507030511 17 0 0.0 3.2 0.00 0.71 0.71 78 1010.0
20260507030030 17 0 0.0 3.2 0.00 0.71 0.71 78 1009.9
20260507025512 17 0 0.0 3.2 0.00 0.71 0.71 77 1009.9
20260507025008 17 0 0.0 3.2 0.00 0.71 0.71 77 1010.1
20260507024528 17 325 0.0 1.6 0.00 0.71 0.71 76 1010.2
20260507024014 17 0 0.0 3.2 0.00 0.71 0.71 76 1010.1
20260507023508 17 0 0.0 3.2 0.00 0.71 0.71 76 1010.0
20260507023031 17 0 0.0 3.2 0.00 0.71 0.71 77 1009.8
20260507022513 17 0 0.0 4.8 0.00 0.71 0.71 77 1009.8
20260507022011 17 0 0.0 4.8 0.00 0.71 0.71 77 1010.0
20260507021530 17 0 0.0 4.8 0.00 0.71 0.71 77 1009.9
20260507021010 17 0 0.0 3.2 0.00 0.71 0.71 77 1009.6
20260507020508 18 0 0.0 3.2 0.00 0.71 0.71 78 1009.6
20260507020030 18 0 0.0 1.6 0.00 0.71 0.71 77 1009.4
20260507015507 18 0 0.0 1.6 0.00 0.71 0.71 78 1009.1
20260507015011 18 0 0.0 4.8 0.00 0.71 0.71 78 1009.4
20260507014547 18 0 0.0 6.4 0.00 0.71 0.71 78 1009.3
20260507014011 18 0 0.0 6.4 0.00 0.71 0.71 79 1009.5
20260507013508 18 0 0.0 1.6 0.00 0.71 0.71 79 1009.7
20260507013042 18 0 0.0 3.2 0.00 0.71 0.71 78 1009.6
20260507012513 18 0 0.0 3.2 0.00 0.71 0.71 79 1009.6
20260507012013 19 66 0.0 1.6 0.00 0.71 0.71 82 1009.3
20260507011536 19 0 0.0 1.6 0.00 0.71 0.71 83 1009.5
20260507011007 19 0 0.0 1.6 0.00 0.71 0.71 82 1009.2
20260507010511 19 0 0.0 1.6 0.00 0.71 0.71 82 1009.3
20260507010033 19 0 0.0 0.0 0.00 0.71 0.71 82 1009.4
20260507005511 19 0 0.0 0.0 0.00 0.71 0.71 82 1009.5
20260507005010 19 0 0.0 0.0 0.00 0.71 0.71 82 1009.3
20260507004530 19 0 0.0 0.0 0.00 0.71 0.71 81 1009.1
20260507004011 19 0 0.0 4.8 0.00 0.71 0.71 81 1009.2
20260507003511 19 0 0.0 4.8 0.00 0.71 0.71 81 1009.1
20260507003028 19 0 0.0 4.8 0.00 0.71 0.71 81 1009.2
20260507002512 19 0 0.0 1.6 0.00 0.71 0.71 81 1009.0
20260507002011 19 0 0.0 1.6 0.00 0.71 0.71 81 1008.9
20260507001530 20 0 0.0 0.0 0.00 0.71 0.71 80 1008.8
20260507001011 20 0 0.0 1.6 0.00 0.71 0.71 80 1008.8
20260507000511 20 0 0.0 1.6 0.00 0.71 0.71 80 1009.0
20260507000031 20 0 0.0 3.2 0.00 0.71 0.71 80 1009.1
20260506235511 20 0 0.0 3.2 0.00 0.71 0.71 80 1009.0
20260506235009 20 0 0.0 3.2 0.00 0.71 0.71 80 1009.0
20260506234530 20 0 0.0 3.2 0.00 0.71 0.71 80 1009.1
20260506234010 20 0 0.0 3.2 0.00 0.71 0.71 79 1008.8
20260506233511 20 0 0.0 3.2 0.00 0.71 0.71 79 1008.8
20260506233030 20 0 0.0 1.6 0.00 0.71 0.71 79 1008.7
20260506232508 20 0 0.0 4.8 0.00 0.71 0.71 79 1008.6
20260506232010 20 0 0.0 4.8 0.00 0.71 0.71 79 1008.7
20260506231529 20 0 0.0 3.2 0.00 0.71 0.71 78 1008.5
20260506231011 20 238 0.0 4.8 0.00 0.71 0.71 78 1008.5
20260506230509 20 0 0.0 4.8 0.00 0.71 0.71 78 1008.5
20260506230030 20 0 1.6 4.8 0.00 0.71 0.71 78 1008.4
20260506225512 20 0 0.0 4.8 0.00 0.71 0.71 78 1008.3
20260506225009 20 113 0.0 4.8 0.00 0.71 0.71 78 1008.3
20260506224530 20 0 0.0 4.8 0.00 0.71 0.71 78 1008.5
20260506224008 20 0 0.0 4.8 0.00 0.71 0.71 78 1008.5
20260506223510 20 221 0.0 4.8 0.00 0.71 0.71 77 1008.4
20260506223030 20 0 0.0 4.8 0.00 0.71 0.71 77 1008.3
20260506222512 20 0 0.0 9.7 0.00 0.71 0.71 77 1008.3
20260506222011 20 0 0.0 9.7 0.00 0.71 0.71 77 1008.2
20260506221530 20 340 0.0 6.4 0.00 0.71 0.71 77 1008.2
20260506221014 20 223 0.0 6.4 0.00 0.71 0.71 77 1008.3
20260506220510 20 0 1.6 6.4 0.00 0.71 0.71 77 1008.2
20260506220030 20 120 0.0 9.7 0.00 0.71 0.71 77 1008.2
20260506215512 21 0 1.6 9.7 0.00 0.71 0.71 76 1008.3
20260506215008 21 277 0.0 6.4 0.00 0.71 0.71 77 1008.4
20260506214527 21 231 1.6 11.3 0.00 0.71 0.71 76 1008.3
20260506214008 21 0 0.0 11.3 0.00 0.71 0.71 76 1008.2
20260506213509 21 298 0.0 11.3 0.00 0.71 0.71 76 1008.4
20260506213028 21 215 0.0 6.4 0.00 0.71 0.71 76 1008.2
20260506212510 21 0 0.0 6.4 0.00 0.71 0.71 75 1008.2
20260506212012 21 256 0.0 12.9 0.00 0.71 0.71 74 1008.2
20260506211527 21 121 1.6 12.9 0.00 0.71 0.71 74 1008.1
20260506211011 21 252 0.0 11.3 0.00 0.71 0.71 76 1008.1
20260506210511 21 213 0.0 11.3 0.00 0.71 0.71 75 1008.1
20260506210036 21 224 1.6 14.5 0.00 0.71 0.71 75 1007.9
20260506205511 21 157 3.2 14.5 0.00 0.71 0.71 74 1007.7
20260506205010 21 272 3.2 16.1 0.00 0.71 0.71 75 1007.8
20260506204530 21 275 3.2 16.1 0.00 0.71 0.71 75 1008.0
20260506204010 21 129 1.6 12.9 0.00 0.71 0.71 75 1007.9
20260506203508 21 242 1.6 12.9 0.00 0.71 0.71 75 1007.8
20260506203040 21 0 1.6 12.9 0.00 0.71 0.71 75 1007.7
20260506202511 21 276 3.2 11.3 0.00 0.71 0.71 75 1008.0
20260506202013 21 96 1.6 14.5 0.00 0.71 0.71 75 1008.0
20260506201530 21 233 1.6 14.5 0.00 0.71 0.71 75 1008.0
20260506201012 21 168 3.2 16.1 0.00 0.71 0.71 75 1008.0
20260506200507 21 249 3.2 16.1 0.00 0.71 0.71 75 1008.1
20260506200029 21 224 3.2 12.9 0.00 0.71 0.71 75 1008.0
20260506195512 20 203 1.6 9.7 0.00 0.71 0.71 77 1008.0
20260506195010 20 275 1.6 12.9 0.00 0.71 0.71 76 1008.0
20260506194530 20 255 3.2 14.5 0.00 0.71 0.71 76 1008.1
20260506194009 21 257 1.6 14.5 0.00 0.71 0.71 75 1008.1
20260506193510 21 206 3.2 14.5 0.00 0.71 0.71 76 1008.1
20260506193031 21 167 1.6 14.5 0.00 0.71 0.71 76 1008.0
20260506192513 21 271 3.2 14.5 0.00 0.71 0.71 76 1008.2
20260506192011 20 209 3.2 9.7 0.00 0.71 0.71 76 1008.1
20260506191532 20 94 1.6 11.3 0.00 0.71 0.71 76 1008.1
20260506191008 20 0 3.2 11.3 0.00 0.71 0.71 77 1008.2
20260506190509 20 19 3.2 12.9 0.00 0.71 0.71 78 1008.2
20260506190029 20 83 1.6 12.9 0.00 0.71 0.71 79 1008.3
20260506185511 20 285 3.2 12.9 0.00 0.71 0.71 78 1008.3
20260506185011 20 290 1.6 11.3 0.00 0.71 0.71 79 1008.4
20260506184529 20 77 1.6 11.3 0.00 0.71 0.71 80 1008.3
20260506184010 19 0 0.0 11.3 0.00 0.71 0.71 81 1008.4
20260506183512 19 0 1.6 9.7 0.00 0.71 0.71 81 1008.5
20260506183029 19 290 0.0 17.7 0.00 0.71 0.71 80 1008.6
20260506182510 18 273 4.8 17.7 0.00 0.71 0.71 80 1008.7
20260506182012 18 244 3.2 17.7 0.00 0.71 0.71 81 1008.6
20260506181534 18 277 4.8 17.7 0.00 0.71 0.71 80 1008.5
20260506181013 18 136 3.2 14.5 0.00 0.71 0.71 81 1008.6
20260506180517 18 246 1.6 19.3 0.00 0.71 0.71 82 1008.7
20260506180038 18 95 4.8 19.3 0.00 0.71 0.71 82 1008.8
20260506175511 18 113 6.4 16.1 0.00 0.71 0.71 82 1008.8
20260506175011 18 298 3.2 16.1 0.00 0.71 0.71 83 1008.8
20260506174529 18 234 1.6 14.5 0.00 0.71 0.71 84 1008.9
20260506174009 18 114 0.0 14.5 0.00 0.71 0.71 85 1008.9
20260506173509 18 273 3.2 14.5 0.00 0.71 0.71 84 1008.8
20260506173027 18 163 0.0 6.4 0.00 0.71 0.71 86 1008.8
20260506172511 17 91 0.0 9.7 0.00 0.71 0.71 87 1009.0
20260506172017 17 344 3.2 9.7 0.00 0.71 0.71 86 1008.8
20260506171544 17 0 0.0 14.5 0.00 0.71 0.71 87 1008.9
20260506171012 17 308 3.2 14.5 0.00 0.71 0.71 87 1009.0
20260506170508 17 325 4.8 17.7 0.00 0.71 0.71 87 1009.1
20260506170027 17 242 3.2 17.7 0.00 0.71 0.71 88 1009.1
20260506165512 17 321 3.2 16.1 0.00 0.71 0.71 88 1009.2
20260506165011 17 103 3.2 16.1 0.00 0.71 0.71 89 1009.0
20260506164528 17 234 3.2 16.1 0.00 0.71 0.71 89 1009.1
20260506164011 16 0 1.6 9.7 0.00 0.71 0.71 91 1009.0
20260506163511 16 0 3.2 9.7 0.00 0.71 0.71 91 1009.2
20260506163031 16 0 0.0 14.5 0.00 0.71 0.71 91 1009.1
20260506162508 16 0 3.2 14.5 0.03 0.71 0.71 91 1009.2
20260506162015 16 0 1.6 12.9 0.03 0.71 0.71 92 1009.1
20260506161541 16 26 1.6 12.9 0.03 0.71 0.71 92 1009.1
20260506161014 16 115 1.6 12.9 0.05 0.71 0.71 92 1009.2